Location: Middle Street
(51.7167°N, 0.0333°E)
Time: 19:07:40
(UTC+00:00)

CZ-4C R/B - Pass Details

Date: 20 January 2021
Orbit: 617 x 1385 km, 63.4° (Epoch: 27 February)

Event Time Altitude Azimuth Distance (km) Brightness Sun altitude
Rises 18:56:13 0° 269° (W) 3,242 6.8 -22.4°
Reaches altitude 10° 18:58:41 10° 280° (W) 2,418 5.6 -22.8°
Maximum altitude 19:03:46 34° 344° (NNW) 1,503 3.6 -23.6°
Enters shadow 19:06:31 24° 26° (NNE) 1,925 3.8 -24.0°
